Regional Weather Roundup
Issued by NWS

Home | Current Version | Previous Version | Graphics & Text | Print | Product List | Glossary Off
Versions: 1 2 3 4 5 6 7 8 9 10 11 12 13 14 15 16 17 18 19 20 21 22 23 24 25 26 27 28 29 30 31 32 33 34 35 36 37 38 39 40 41 42 43 44 45 46 47 48 49 50

000
ASUS43 KTOP 250008
RWRKS

WEATHER ROUNDUP FOR KANSAS
NATIONAL WEATHER SERVICE GOODLAND KS
700 PM CDT TUE MAY 24 2016

NOTE:  "FAIR" INDICATES FEW OR NO CLOUDS BELOW 12,000 FEET WITH NO
SIGNIFICANT WEATHER AND/OR OBSTRUCTIONS TO VISIBILITY.

KSZ001>006-013>018-027>032-041>047-250100-
NORTHWEST KANSAS

CITY           SKY/WX    TMP DP  RH WIND       PRES   REMARKS
GOODLAND       MOSUNNY   78  60  53 SE17G23   29.78F
6HR MIN TEMP:  69; 6HR MAX TEMP:  79;

HAYS           CLOUDY    75  63  64 E10       29.83R
HILL CITY      CLOUDY    77  60  55 SE20G35   29.72F
6HR MIN TEMP:  71; 6HR MAX TEMP:  81; 6HR PCP: TRACE;

RUSSELL        CLOUDY    75  67  76 E10       29.80S
6HR MIN TEMP:  74; 6HR MAX TEMP:  79; 6HR PCP: TRACE;

$$

KSZ061>065-074>080-084>089-250100-
SOUTHWEST KANSAS

CITY           SKY/WX    TMP DP  RH WIND       PRES   REMARKS
DODGE CITY     TSTM      73  70  90 E24       29.71F FOG
6HR MIN TEMP:  71; 6HR MAX TEMP:  83; 6HR PCP:  0.85;

ELKHART          N/A     88  39  17 MISG        N/A
GARDEN CITY    SUNNY     88  42  20 SW14      29.72R
6HR MIN TEMP:  79; 6HR MAX TEMP:  90;

GREAT BEND     MOSUNNY   81  64  57 SE15G23   29.77R
LIBERAL        CLOUDY    79  64  61 S17G23    29.75F
PRATT          CLOUDY    77  68  73 SE16G22   29.77F
6HR MIN TEMP:  71; 6HR MAX TEMP:  82;

$$

KSZ066>073-081>083-090>101-250100-
SOUTHEAST KANSAS

CITY           SKY/WX    TMP DP  RH WIND       PRES   REMARKS
CHANUTE        CLOUDY    78  70  76 SE9       29.87F
6HR MIN TEMP:  73; 6HR MAX TEMP:  81;

COFFEYVILLE    CLOUDY    79  67  66 E8        29.86F
6HR MIN TEMP:  77; 6HR MAX TEMP:  85;

HUTCHINSON     MOSUNNY   81  71  71 SE18      29.79F
6HR MIN TEMP:  77; 6HR MAX TEMP:  83;

MEDICINE LODGE   N/A     80  62  54 SE20G31   29.75F
NEWTON         MOSUNNY   79  66  65 SE13      29.84F
PARSONS        CLOUDY    78  70  76 VRB7      29.88F
6HR MIN TEMP:  74; 6HR MAX TEMP:  83;

WICHITA INTL   MOSUNNY   81  69  67 SE17      29.79F
6HR MIN TEMP:  78; 6HR MAX TEMP:  83;

WICHITA JABRA  MOSUNNY   80  70  71 SE17      29.81F
6HR MIN TEMP:  76; 6HR MAX TEMP:  81;

WICHITA MCCONL SUNNY     81  70  69 S15       29.80F
WINFIELD       SUNNY     80  67  64 SE14G21   29.82F
6HR MIN TEMP:  80; 6HR MAX TEMP:  83;

$$

KSZ007>012-019>026-033>040-048>060-102>105-250100-
NORTHEAST KANSAS

CITY           SKY/WX    TMP DP  RH WIND       PRES   REMARKS
CONCORDIA      SUNNY     78  64  61 SE14      29.81F
6HR MIN TEMP:  75; 6HR MAX TEMP:  81;

EMPORIA        MOSUNNY   80  71  74 S10       29.86F
6HR MIN TEMP:  74; 6HR MAX TEMP:  81;

LAWRENCE       MOSUNNY   79  69  71 S8        29.88R
6HR MIN TEMP:  73; 6HR MAX TEMP:  80;

MANHATTAN      SUNNY     82  66  58 S10       29.82F
6HR MIN TEMP:  79; 6HR MAX TEMP:  83;

MARYSVILLE     SUNNY     79  63  57 SE7       29.85F
OLATHE IND     SUNNY     78  68  71 S8        29.91R
6HR MIN TEMP:  73; 6HR MAX TEMP:  79;

OLATHE EXE     SUNNY     77  67  71 S7        29.91R
6HR MIN TEMP:  71; 6HR MAX TEMP:  77;

SALINA         SUNNY     81  69  67 SE15      29.78F
6HR MIN TEMP:  80; 6HR MAX TEMP:  83;

TOPEKA BILLARD PTSUNNY   80  68  66 SE9       29.87R
6HR MIN TEMP:  75; 6HR MAX TEMP:  82; 6HR PCP: TRACE;

TOPEKA FORBES  MOSUNNY   82  69  64 S10       29.87R
6HR MIN TEMP:  75; 6HR MAX TEMP:  82;

$$



USA.gov is the U.S. government's official web portal to all federal, state and local government web resources and services.